This is the latest recevied weather packets stored in our database for station/object N7TUG-8. If no packets are shown the sender has not sent any weather packets the latest 1 day(s).
| Time | Temp. | Humidity | Pressure | Rain* | Wind** | Luminosity | Snow |
|---|---|---|---|---|---|---|---|
| 1778025226 | 17.78° C | 74% | 1015 hPa | 0 mm | 2.68 m/s, 128° | - | - |
| 1778024907 | 17.78° C | 75% | 1014.9 hPa | 0 mm | 3.13 m/s, 126° | - | - |
| 1778024320 | 17.22° C | 75% | 1015 hPa | 0 mm | 3.13 m/s, 123° | - | - |
| 1778023490 | 17.22° C | 76% | 1015.1 hPa | 0 mm | 3.58 m/s, 126° | - | - |
| 1778022686 | 17.22° C | 75% | 1015.2 hPa | 0 mm | 3.13 m/s, 119° | - | - |
| 1778022477 | 17.22° C | 76% | 1015.3 hPa | 0 mm | 3.58 m/s, 124° | - | - |
| 1778021831 | 17.22° C | 75% | 1015.3 hPa | 0 mm | 2.68 m/s, 131° | - | - |
| 1778021642 | 17.22° C | 75% | 1015.3 hPa | 0 mm | 2.68 m/s, 125° | - | - |
| 1778020911 | 16.67° C | 76% | 1015.4 hPa | 0 mm | 4.02 m/s, 121° | - | - |
| 1778020046 | 16.67° C | 77% | 1015.5 hPa | 0 mm | 4.02 m/s, 119° | - | - |
| 1778020011 | 16.67° C | 77% | 1015.5 hPa | 0 mm | 4.02 m/s, 119° | - | - |
| 1778019281 | 16.67° C | 76% | 1015.6 hPa | 0 mm | 3.58 m/s, 120° | - | - |
| 1778019123 | 16.67° C | 76% | 1015.6 hPa | 0 mm | 3.58 m/s, 120° | - | - |
| 1778018470 | 16.67° C | 75% | 1015.7 hPa | 0 mm | 3.13 m/s, 131° | - | - |
| 1778018407 | 16.67° C | 75% | 1015.8 hPa | 0 mm | 2.68 m/s, 153° | - | - |
| 1778017587 | 16.67° C | 75% | 1015.8 hPa | 0 mm | 2.68 m/s, 144° | - | - |
| 1778016801 | 16.67° C | 75% | 1015.9 hPa | 0 mm | 2.24 m/s, 136° | - | - |
| 1778016707 | 16.67° C | 75% | 1015.9 hPa | 0 mm | 2.24 m/s, 136° | - | - |
| 1778016006 | 16.67° C | 77% | 1015.8 hPa | 0 mm | 2.68 m/s, 146° | - | - |
| 1778015851 | 16.67° C | 77% | 1015.8 hPa | 0 mm | 2.68 m/s, 146° | - | - |
| 1778015181 | 16.11° C | 77% | 1015.8 hPa | 0 mm | 2.68 m/s, 151° | - | - |
| 1778015091 | 16.11° C | 77% | 1015.9 hPa | 0 mm | 2.68 m/s, 165° | - | - |
| 1778014396 | 16.11° C | 76% | 1016 hPa | 0 mm | 3.13 m/s, 165° | - | - |
| 1778014211 | 16.11° C | 76% | 1015.9 hPa | 0 mm | 2.68 m/s, 162° | - | - |
| 1778013566 | 16.11° C | 76% | 1016 hPa | 0 mm | 2.24 m/s, 176° | - | - |
* Rain latest hour (hover to see other rain measurements)
** Current wind speed in m/s (hover to see current wind gust speed)